Wind_Speed
7 7 6 6 6 6 6 6 6 6 5 6 6 6 7 7 8 8 8 8 9 9 9 10 11 11 12 13 13 13 13 13 13 13 13 14 15 15 15 14 14 13 12
7 6 7 7 7 6 6 6 6 5 4 4 5 5 6 7 7 8 8 8 8 8 8 9 10 11 12 12 13 13 13 13 13 13 13 13 14 15 15 15 15 15 14
6 6 7 7 7 6 6 6 5 5 4 3 3 4 5 6 7 7 7 7 8 8 8 8 10 11 11 12 13 13 13 13 13 13 14 14 14 15 16 16 16 16 16
6 6 6 7 6 6 5 5 4 4 3 2 2 3 4 5 6 6 6 7 7 8 8 8 9 10 11 11 12 12 13 14 13 14 14 15 15 15 16 17 17 17 17
6 6 6 6 6 5 5 4 4 4 3 2 1 2 4 5 5 6 6 6 7 8 8 8 9 10 11 12 12 13 13 13 13 14 14 15 16 16 17 17 18 18 18
6 5 5 6 6 5 5 5 4 4 3 2 1 1 3 4 4 4 5 5 6 6 8 8 8 9 10 11 12 12 13 13 13 13 14 15 16 17 17 17 18 19 19
5 5 5 5 5 5 5 4 4 3 3 2 1 1 2 3 4 4 4 4 5 5 6 8 8 9 9 10 11 12 13 14 14 14 15 16 17 17 18 18 19 19 19
4 4 4 5 4 5 4 4 4 4 3 2 1 0 1 2 3 3 3 3 4 4 5 7 8 8 9 9 10 11 12 13 13 14 15 15 17 18 19 19 19 20 20
4 4 4 4 4 4 4 4 4 4 4 3 2 1 1 2 2 3 3 3 3 3 4 5 7 8 8 9 10 11 12 12 13 14 15 16 16 17 19 20 20 20 20
3 3 3 3 4 4 4 4 4 4 3 3 2 2 1 1 1 2 2 3 3 3 3 4 5 6 8 9 10 11 12 12 13 14 15 15 17 18 19 20 20 20 20
2 3 3 3 3 4 4 4 4 3 3 2 2 2 2 1 0 1 2 2 3 3 4 4 5 6 7 8 9 10 11 11 12 13 14 15 15 16 18 19 20 20 20
2 2 2 2 3 3 4 3 3 3 3 3 2 2 1 1 0 0 1 2 2 3 4 5 5 6 6 7 8 9 9 10 10 12 12 13 14 15 16 18 19 19 20
2 2 3 3 3 3 3 3 3 3 3 2 2 2 2 1 1 1 2 2 2 3 4 5 5 6 6 6 7 8 8 9 10 11 12 13 14 14 15 17 18 19 19
3 3 3 3 3 3 4 4 3 3 3 3 3 3 2 2 2 2 3 3 3 4 4 5 6 6 6 7 7 8 9 10 11 11 13 13 13 13 14 16 17 18 19
4 4 4 4 4 4 4 4 4 4 4 3 2 3 3 2 2 3 3 4 4 5 5 6 6 7 7 7 8 9 10 10 11 12 12 13 14 13 14 16 18 18 19
4 5 5 5 5 5 5 5 4 4 3 3 3 3 3 3 4 4 5 5 6 6 6 6 7 7 7 8 9 10 10 11 12 12 13 14 14 15 15 17 19 19 19
5 6 6 6 6 6 6 5 5 4 4 3 3 4 4 4 4 5 6 6 7 7 7 7 7 8 8 9 10 11 12 12 13 13 14 14 15 16 17 17 19 21 20
7 7 7 7 7 7 6 6 5 5 5 5 5 5 5 5 6 6 7 8 8 8 8 9 9 9 10 11 12 12 13 14 14 15 16 16 17 17 18 19 20 22 22
9 8 8 8 8 7 7 7 7 6 6 6 6 6 7 7 8 8 9 9 10 10 10 11 11 11 12 12 13 13 14 15 16 17 18 19 19 20 20 20 21 23 23
10 10 10 10 9 9 8 8 8 8 8 8 8 9 9 10 10 10 11 11 11 12 12 13 13 13 14 14 15 15 15 16 17 18 19 20 21 21 22 22 23 24 25
12 11 11 11 11 11 10 10 10 10 9 10 10 11 11 12 12 12 13 13 13 14 14 14 15 15 16 16 17 18 18 18 19 19 20 21 21 22 23 24 25 26 27
14 13 12 12 12 12 12 11 12 11 11 12 12 12 13 13 14 14 15 15 15 15 16 16 17 17 18 19 19 20 21 21 22 22 22 23 23 24 25 25 25 26 28
15 15 14 13 13 14 14 13 13 13 14 14 14 14 15 15 15 15 15 16 17 17 18 18 18 19 20 21 22 23 23 24 24 25 25 25 25 26 27 27 28 28 29
17 16 15 15 16 16 16 16 16 16 17 17 17 17 17 17 18 17 17 18 19 19 19 20 21 21 22 23 24 25 26 27 27 28 28 28 28 28 29 29 30 30 31
17 17 17 17 17 18 18 18 18 18 18 19 19 19 19 19 19 20 20 21 21 22 22 23 24 24 25 26 27 27 28 29 30 30 30 31 30 31 31 32 32 32 33
18 19 19 19 20 19 20 19 20 21 21 21 21 21 22 22 22 22 23 24 24 25 25 25 26 27 28 29 30 30 31 31 32 32 32 33 33 33 33 34 34 34 35
Wind_Direction
331 335 336 335 332 325 321 313 312 307 297 285 271 261 251 246 240 238 239 237 234 230 229 229 226 224 223 221 221 220 219 220 220 220 222 220 219 221 222 225 227 228 231
329 332 335 336 333 328 325 320 316 316 308 288 268 254 244 240 238 235 235 237 236 231 229 226 223 223 222 221 221 219 221 223 224 225 227 226 223 225 224 225 228 229 231
330 330 333 337 334 331 326 323 319 319 314 294 263 244 236 232 231 231 232 232 233 231 230 224 223 221 222 222 222 223 224 225 226 227 228 229 227 228 227 228 231 234 235
331 332 334 339 338 337 336 333 330 329 324 307 267 243 232 228 227 227 231 233 232 231 230 224 222 221 222 222 222 223 224 226 228 229 231 232 232 232 231 232 234 238 239
331 336 340 341 343 344 345 343 339 340 340 326 282 251 231 224 222 222 226 228 230 229 229 222 221 222 222 221 223 224 226 229 231 233 235 236 236 237 238 239 238 239 241
336 339 345 347 346 347 348 349 349 350 350 341 320 264 229 217 212 211 217 223 226 230 231 229 226 223 222 221 223 226 229 232 234 238 240 242 242 242 243 243 241 241 243
341 348 355 356 357 356 355 355 356 357 357 350 327 246 221 209 202 199 206 217 226 232 235 234 230 224 224 225 226 230 232 236 238 241 244 246 245 246 245 246 244 244 244
343 351 358 5 6 6 5 5 7 8 10 18 24 156 187 189 192 200 209 224 230 235 236 238 238 235 233 232 232 233 235 239 242 246 248 250 252 250 247 247 246 245 246
343 346 354 10 16 17 15 15 18 18 22 31 41 58 145 189 189 206 223 232 230 233 238 242 240 239 236 237 238 239 239 240 246 251 253 255 256 255 250 248 247 246 246
342 347 350 11 17 18 18 19 22 21 24 34 43 50 75 126 199 202 213 226 230 232 240 247 242 242 242 241 243 246 247 245 250 255 259 262 262 260 256 253 249 249 249
334 343 354 5 9 8 8 15 20 15 16 22 34 44 62 77 186 220 225 229 237 245 253 259 258 255 254 250 252 254 253 253 257 259 262 266 267 262 258 253 251 249 249
298 331 346 345 355 357 359 4 1 1 4 7 13 14 24 36 96 179 259 257 255 259 262 268 272 266 264 259 258 257 260 261 262 263 266 269 268 264 259 254 252 251 251
272 285 303 312 333 348 348 347 348 352 349 349 350 344 331 314 293 274 274 275 270 265 269 275 279 275 274 269 264 265 267 267 265 266 270 272 270 263 257 252 251 251 252
262 274 284 300 312 320 325 324 324 322 327 332 327 326 321 316 301 296 288 277 277 278 280 282 282 280 280 278 273 273 274 275 275 274 274 275 275 270 263 258 255 255 255
261 267 272 286 299 307 312 309 313 314 320 323 323 320 319 312 309 305 299 293 290 288 285 284 284 281 280 282 280 281 282 283 282 280 277 276 276 272 267 262 260 260 260
263 269 272 279 291 299 304 306 307 308 306 302 312 317 316 306 303 305 300 293 291 290 288 288 284 282 284 287 283 281 285 286 285 284 281 277 275 275 272 267 269 269 266
260 269 273 277 283 287 294 295 294 293 292 293 297 305 312 311 308 305 301 299 296 289 291 293 289 286 287 289 290 290 287 287 288 287 284 281 278 277 277 274 273 273 272
256 267 272 276 282 284 284 284 288 290 289 290 295 300 307 309 307 305 301 301 299 293 292 294 292 290 291 293 294 293 290 289 289 288 286 284 282 281 279 277 276 277 276
255 265 270 277 281 278 278 279 282 284 288 288 288 292 297 300 302 299 298 299 299 295 291 291 290 289 291 293 295 294 294 294 293 291 289 287 284 283 281 280 280 280 279
257 263 269 274 275 274 274 275 277 279 282 285 288 291 294 297 299 297 295 295 297 296 292 290 290 289 290 292 293 293 294 295 296 295 292 289 287 284 283 282 281 280 281
259 262 267 269 272 274 273 273 277 279 281 285 288 292 294 296 298 296 292 291 292 293 293 292 292 291 291 292 292 292 293 294 295 295 294 292 290 288 286 285 282 281 281
260 262 264 265 269 270 270 272 275 278 281 284 287 291 293 294 295 294 294 292 293 293 293 292 293 293 293 293 293 293 293 294 295 295 296 295 293 291 289 288 287 285 284
262 263 263 265 267 269 269 269 271 275 280 284 286 289 292 295 298 297 296 294 294 293 293 293 292 293 294 294 294 294 294 294 295 294 294 295 294 292 291 290 289 287 285
263 263 263 263 265 268 270 271 273 275 279 282 285 287 290 290 291 293 294 294 294 294 294 293 293 293 294 294 294 295 294 295 295 295 294 293 293 293 292 291 290 288 286
263 263 264 265 266 270 271 271 273 275 279 282 284 286 287 289 291 293 293 294 294 294 293 293 293 293 293 293 294 295 294 294 294 293 293 292 292 291 291 290 290 288 287
265 266 266 267 268 271 270 271 274 276 278 281 284 285 285 286 287 290 291 293 295 295 293 292 293 293 293 294 294 295 295 294 293 292 292 291 291 290 290 289 289 288 286
Height
5880 5879 5877 5876 5875 5873 5873 5872 5871 5870 5869 5869 5869 5869 5870 5871 5872 5872 5873 5874 5876 5877 5878 5879 5880 5882 5883 5885 5887 5889 5891 5893 5895 5897 5898 5900 5902 5904 5906 5907 5909 5911 5912
5879 5877 5876 5875 5874 5872 5871 5870 5869 5869 5868 5868 5868 5868 5868 5869 5870 5871 5872 5873 5874 5875 5876 5877 5878 5880 5881 5883 5885 5887 5889 5891 5893 5895 5896 5898 5900 5901 5903 5905 5907 5908 5910
5878 5876 5875 5874 5873 5871 5870 5869 5868 5867 5867 5867 5866 5867 5867 5868 5868 5869 5870 5871 5872 5873 5874 5875 5877 5878 5880 5881 5883 5885 5887 5889 5891 5892 5894 5896 5897 5899 5901 5902 5904 5906 5907
5877 5876 5874 5873 5872 5870 5869 5868 5867 5866 5866 5866 5865 5865 5866 5866 5867 5868 5869 5870 5871 5872 5873 5874 5875 5876 5878 5880 5881 5883 5885 5887 5888 5890 5892 5893 5895 5896 5898 5900 5901 5903 5904
5876 5875 5874 5872 5871 5870 5869 5868 5867 5866 5865 5865 5864 5864 5865 5865 5866 5867 5868 5869 5870 5871 5872 5873 5873 5875 5876 5878 5880 5881 5883 5884 5886 5888 5889 5891 5892 5893 5895 5896 5898 5899 5901
5875 5874 5873 5871 5870 5869 5868 5867 5866 5865 5864 5864 5864 5864 5864 5864 5865 5866 5867 5868 5869 5869 5870 5871 5872 5873 5874 5876 5877 5879 5881 5882 5884 5885 5886 5888 5889 5890 5891 5893 5894 5896 5897
5875 5874 5872 5871 5870 5869 5868 5867 5866 5865 5864 5863 5863 5863 5863 5864 5865 5865 5866 5867 5868 5868 5869 5870 5870 5871 5873 5874 5875 5877 5878 5880 5881 5882 5883 5884 5885 5886 5888 5889 5890 5892 5893
5874 5873 5872 5871 5870 5869 5868 5867 5866 5865 5864 5863 5863 5863 5863 5864 5864 5865 5866 5866 5867 5868 5868 5869 5869 5870 5871 5872 5873 5874 5876 5877 5878 5879 5880 5880 5881 5882 5883 5884 5886 5887 5889
5873 5873 5871 5870 5870 5869 5868 5867 5866 5865 5864 5863 5863 5863 5863 5864 5864 5865 5865 5866 5866 5867 5867 5868 5868 5869 5870 5870 5871 5872 5873 5874 5875 5875 5876 5876 5877 5877 5878 5880 5881 5882 5884
5873 5872 5871 5870 5870 5869 5868 5867 5866 5865 5864 5864 5863 5863 5863 5864 5864 5864 5865 5865 5865 5866 5866 5867 5867 5867 5868 5868 5869 5870 5870 5871 5872 5872 5872 5872 5872 5872 5873 5874 5876 5877 5879
5872 5872 5871 5870 5869 5869 5868 5867 5866 5865 5865 5864 5864 5863 5863 5863 5863 5864 5864 5864 5865 5865 5865 5865 5865 5866 5866 5866 5867 5867 5867 5868 5868 5868 5868 5868 5867 5866 5866 5868 5870 5872 5874
5872 5871 5871 5870 5869 5868 5868 5867 5866 5865 5865 5864 5864 5864 5863 5863 5863 5863 5863 5864 5864 5864 5864 5864 5864 5864 5864 5864 5864 5865 5865 5865 5865 5865 5865 5864 5863 5862 5861 5862 5865 5867 5869
5871 5870 5870 5869 5869 5868 5867 5867 5866 5865 5865 5864 5864 5864 5863 5863 5863 5863 5863 5863 5863 5863 5863 5863 5862 5862 5862 5862 5862 5862 5862 5863 5862 5862 5862 5861 5860 5857 5856 5858 5859 5862 5863
5870 5869 5869 5869 5868 5867 5867 5866 5866 5865 5864 5864 5863 5863 5862 5862 5862 5862 5862 5862 5862 5862 5862 5862 5861 5861 5860 5860 5860 5860 5860 5860 5860 5859 5858 5858 5856 5854 5853 5854 5856 5858 5859
5868 5869 5868 5868 5867 5867 5866 5865 5865 5864 5863 5863 5863 5862 5862 5861 5861 5861 5860 5861 5861 5861 5860 5860 5859 5859 5859 5858 5858 5858 5858 5857 5857 5856 5855 5854 5853 5852 5851 5852 5853 5854 5855
5867 5868 5867 5867 5867 5866 5865 5865 5864 5863 5863 5862 5862 5862 5861 5861 5860 5860 5859 5859 5859 5859 5859 5858 5858 5857 5857 5856 5856 5855 5855 5854 5854 5853 5852 5851 5850 5850 5849 5849 5849 5850 5850
5866 5866 5866 5866 5865 5865 5864 5863 5863 5863 5862 5862 5862 5861 5861 5860 5859 5859 5858 5858 5857 5857 5857 5856 5856 5855 5855 5854 5853 5852 5852 5851 5850 5849 5848 5847 5847 5846 5846 5846 5845 5845 5845
5865 5865 5864 5864 5864 5863 5863 5862 5862 5862 5862 5861 5861 5860 5860 5859 5858 5857 5857 5856 5855 5855 5854 5854 5854 5853 5853 5852 5851 5850 5849 5848 5847 5845 5844 5843 5843 5842 5841 5841 5841 5840 5839
5863 5863 5862 5862 5862 5861 5861 5861 5861 5860 5860 5860 5860 5859 5858 5857 5856 5856 5855 5854 5853 5852 5852 5851 5851 5850 5849 5849 5848 5847 5845 5844 5843 5841 5840 5839 5838 5837 5837 5836 5836 5835 5834
5860 5860 5860 5860 5860 5859 5859 5859 5859 5859 5859 5858 5858 5857 5856 5855 5854 5853 5852 5851 5850 5849 5848 5848 5847 5846 5846 5845 5844 5843 5842 5840 5838 5837 5835 5834 5833 5832 5831 5831 5830 5829 5828
5857 5858 5857 5857 5857 5857 5857 5856 5856 5856 5856 5856 5855 5855 5854 5853 5851 5850 5849 5848 5847 5846 5845 5844 5843 5842 5842 5841 5839 5838 5837 5836 5834 5832 5830 5829 5827 5826 5825 5824 5823 5822 5821
5854 5854 5854 5854 5854 5854 5854 5854 5854 5854 5853 5853 5852 5852 5851 5849 5848 5847 5846 5845 5843 5842 5841 5840 5839 5838 5837 5836 5834 5833 5832 5830 5829 5827 5825 5823 5821 5820 5819 5817 5816 5815 5813
5851 5851 5851 5851 5851 5851 5851 5851 5851 5850 5850 5849 5849 5848 5847 5846 5844 5843 5841 5840 5839 5838 5837 5836 5834 5833 5832 5830 5829 5827 5826 5824 5822 5820 5819 5817 5815 5813 5811 5809 5808 5807 5805
5846 5846 5847 5847 5847 5847 5847 5847 5847 5846 5846 5845 5845 5844 5843 5841 5840 5839 5837 5836 5834 5833 5831 5830 5829 5827 5826 5824 5822 5821 5819 5817 5815 5813 5811 5810 5807 5805 5803 5801 5799 5797 5796
5842 5842 5842 5842 5842 5842 5842 5842 5842 5841 5841 5841 5840 5839 5838 5836 5835 5833 5832 5831 5829 5827 5826 5824 5822 5820 5818 5817 5815 5813 5811 5809 5807 5805 5802 5801 5799 5797 5795 5793 5790 5787 5785
5837 5837 5837 5837 5837 5837 5837 5836 5836 5836 5836 5835 5834 5833 5832 5831 5830 5828 5826 5825 5823 5821 5819 5817 5815 5813 5811 5809 5806 5804 5802 5800 5798 5796 5793 5791 5789 5787 5786 5784 5780 5778 5775